Skip Page Navigation
NASA JPL Caltech
NASA Logo - Jet Propulsion Laboratory + View the NASA Portal
+ Near-Earth Object (NEO) Program
Search JPL
JPL Home Earth Solar System Stars & Galaxies Technology
JPL Solar System Dynamics
BODIES ORBITS EPHEMERIDES TOOLS PHYSICAL DATA DISCOVERY FAQ SITE MAP
JPL Small-Body Database Browser
Search: [ help ]  
132719 Lambey (2002 PF)
Classification: Main-belt Asteroid          SPK-ID: 2132719
Ephemeris | Orbit Diagram | Orbital Elements | Physical Parameters | Discovery Circumstances ]

[ show orbit diagram ]
Orbital Elements at Epoch 2456400.5 (2013-Apr-18.0) TDB
Reference: MPO257614 (heliocentric ecliptic J2000)
 Element Value Uncertainty (1-sigma)   Units 
e 0.2315924 n/a  
a 2.5710033 n/a AU
q 1.9755785 n/a AU
i 3.41515 n/a deg
node 308.38975 n/a deg
peri 17.20666 n/a deg
M 207.88914 n/a deg
tp 2457036.7240885
(2015-Jan-14.22408850)
n/a JED
period 1505.7483197
4.12
n/a
n/a
d
yr
n 0.23908378 n/a deg/d
Q 3.1664281 n/a AU
  Orbit Determination Parameters
   # obs. used (total)      175  
   first obs. used      1998-??-??  
   last obs. used      2013-03-13  
   # oppositions      8  
   planetary ephem.      DE403  
   condition code      0  
   fit RMS      0.44  
   data source      MPC:mpu  
   producer      MPCLINUX  

Additional Information
 T_jup = 3.389 

Ephemeris | Orbit Diagram | Orbital Elements | Physical Parameters | Discovery Circumstances ]

Physical Parameter Table
Parameter Symbol Value Units Sigma Reference Notes
absolute magnitude H 15.9 mag n/a MPC38346  

132719 Lambey           Discovered 2002 Aug. 1 at Pises Observatory.
Bernard Lambey (b. 1934), an animator and a popularizer of astronomy, is a cofounder of the Astronomical Society of Montpellier.
NOTE: some special characters may not display properly (any characters within {} are an attempt to place the proper accent above a character)
Reference: 20070926/MPCPages.arcLast Updated: 2007-09-30

Alternate Designations
 2002 PF = 1999 XE251 
Ephemeris | Orbit Diagram | Orbital Elements | Physical Parameters | Discovery Circumstances ]
ABOUT SSD CREDITS/AWARDS PRIVACY/COPYRIGHT GLOSSARY LINKS
FirstGov 2013-May-22 11:26 UT
(server date/time)  
NASA Home Page
Site Manager:   Donald K. Yeomans
Webmaster  Alan B. Chamberlin